Regional Weather Roundup
Issued by NWS Green Bay, WI

Home | Current Version | Previous Version | Graphics & Text | Print | Product List | Glossary Off
Versions: 1 2 3 4 5 6 7 8 9 10 11 12 13 14 15 16 17 18 19 20 21 22 23 24 25 26 27 28 29 30 31 32 33 34 35 36 37 38 39 40 41 42 43 44 45 46 47 48 49 50

000
ASUS43 KGRB 181301
RWRGRB

NORTH-CENTRAL AND NORTHEAST WISCONSIN REGIONAL WEATHER ROUNDUP
NATIONAL WEATHER SERVICE GREEN BAY WI
800 AM CDT FRI AUG 18 2017

WIZ005-009-010>012-018-019-181400-
NORTH CENTRAL WISCONSIN

CITY           SKY/WX    TMP DP  RH WIND       PRES   REMARKS
IRONWOOD       CLOUDY    60  59  96 W7        29.82R
MANITOWISH WTR NOT AVBL
ARBOR VITAE    NOT AVBL
EAGLE RIVER    NOT AVBL
LAND O LAKES   CLOUDY    58  56  94 N12G20    29.79S FOG
RHINELANDER    LGT RAIN  59  58  96 VRB5      29.80R
PHILLIPS       CLOUDY    59  59  99 W3        29.82R
ANTIGO         NOT AVBL
TOMAHAWK       NOT AVBL
MERRILL        NOT AVBL
$$

WIZ013-073-181400-
NORTHEAST WISCONSIN

CITY           SKY/WX    TMP DP  RH WIND       PRES   REMARKS
IRON MOUNTAIN  MOSUNNY   63  55  75 NW21G29   29.70R
MARINETTE      CLOUDY    65  59  81 VRB6      29.70R
$$

WIZ017-030-035>037-045-181400-
CENTRAL WISCONSIN

CITY           SKY/WX    TMP DP  RH WIND       PRES   REMARKS
MEDFORD        NOT AVBL
WAUSAU         CLOUDY    63  57  81 NW13      29.79R
MOSINEE        CLOUDY    63  57  82 NW14      29.82R
MARSHFIELD     CLOUDY    63  56  78 NW14      29.82R
WISC RAPIDS    CLOUDY    64  58  80 NW10      29.83R
STEVENS POINT  NOT AVBL
WAUPACA        NOT AVBL
SHAWANO        CLOUDY    66  60  79 W9        29.74R
CLINTONVILLE   CLOUDY    64  55  72 W13G20    29.76R
WAUTOMA        CLOUDY    65  58  78 W14       29.82R
$$

WIZ038-039-048-051-181400-
FOX VALLEY

CITY           SKY/WX    TMP DP  RH WIND       PRES   REMARKS
NWS GREEN BAY  PTSUNNY   66  61  84 W13       29.74R
APPLETON       PTSUNNY   64  55  72 W14       29.76R
OSHKOSH        CLOUDY    65  59  81 W9        29.78R
FOND DU LAC    CLOUDY    65  58  78 W9        29.79R
$$

WIZ022-050-052-181400-
EAST CENTRAL WISCONSIN

CITY           SKY/WX    TMP DP  RH WIND       PRES   REMARKS
EPHRAIM        NOT AVBL
WASHINGTON ISL NOT AVBL
STURGEON BAY   CLOUDY    66  60  81 W14G20    29.70R
MANITOWOC      NOT AVBL
SHEBOYGAN      CLOUDY    67  61  81 W9        29.76R
$$

LMZ563-521-522-541>543-181400-
LAKESHORE

STATION/POSITION TIME  TEMP    WIND        PRES    VSBY  WAVE
                       AIR SEA DIR/SP/G                  HT/PER
                 (UTC) (F)     (DEG/KT/KT) (MB)    (MI)  (FT/S)
SHEBOYGAN LKSHOR 1200   67     290/ 12/ 15 1006.5R
KEWAUNEE LKSHORE 1230   66     280/  7/ 13 1005.2R
NORTHPORT PIER   1240   66     310/ 17/ 24 1004.1R
N MID LAKE BUOY  1150   65 67  290/ 21/ 25 1002.9R         5/ 5
S GREEN BAY BUOY 1230   66 71  260/ 16/ 19 1005.9R
SISTER BAY LKSHO 1218   67     310/ 17/ 21   N/A
MENOMINEE LKSHOR 1230   66     280/  5/ 12 1004.8R
$$




USA.gov is the U.S. government's official web portal to all federal, state and local government web resources and services.